WA3NOA-2 Weather Reports


time (UTC)temp
F
wind
direction
speed
knots
gust
knots
rain 1hr
in
rain 24hr
in
rain mn
in
humidity
%
barometer
mb
20260504130706 58 0 0.0 2.6 0.00 0.00 0.00 65 1008.0
20260504130308 57 252 0.9 2.6 0.00 0.00 0.00 68 1008.1
20260504130206 57 252 0.9 2.6 0.00 0.00 0.00 68 1007.9
20260504120308 51 224 5.2 6.1 0.00 0.00 0.00 72 1008.1
20260504120206 51 244 6.1 6.1 0.00 0.00 0.00 72 1008.1
20260504110706 44 0 0.0 0.9 0.00 0.00 0.00 77 1008.1
20260504110307 43 76 0.9 0.9 0.00 0.00 0.00 78 1008.3
20260504110206 43 0 0.0 0.9 0.00 0.00 0.00 77 1008.2
20260504100307 42 248 1.7 2.6 0.00 0.00 0.00 73 1008.4
20260504100206 42 241 1.7 2.6 0.00 0.00 0.00 74 1008.4
20260504081807 40 0 0.0 0.0 0.00 0.00 0.00 71 1008.3
20260504081706 40 0 0.0 0.0 0.00 0.00 0.00 71 1008.4
20260504081206 40 0 0.0 0.0 0.00 0.00 0.00 70 1008.3
20260504080706 40 0 0.0 0.0 0.00 0.00 0.00 70 1008.3
20260504080307 40 0 0.0 0.0 0.00 0.00 0.00 70 1008.2
20260504080206 40 0 0.0 0.0 0.00 0.00 0.00 70 1008.3
20260504070307 42 0 0.0 0.0 0.00 0.00 0.00 67 1008.3
20260504070206 42 0 0.0 0.0 0.00 0.00 0.00 67 1008.2
20260504060207 44 0 0.0 0.0 0.00 0.00 0.00 63 1008.2
20260504050707 44 0 0.0 0.9 0.00 0.00 0.00 65 1008.3
20260504050308 44 0 0.0 1.7 0.00 0.00 0.00 65 1008.2
20260504050207 44 0 0.0 1.7 0.00 0.00 0.00 65 1008.3
20260504045707 44 0 0.0 0.0 0.00 0.00 0.00 65 1008.2
20260504045207 44 0 0.0 0.0 0.00 0.00 0.00 65 1008.3
20260504044809 44 0 0.0 0.0 0.00 0.00 0.00 65 1008.3
20260504044707 44 0 0.0 0.0 0.00 0.00 0.00 65 1008.2
20260504044207 44 0 0.0 0.0 0.00 0.00 0.00 64 1008.2
20260504043707 44 0 0.0 0.0 0.00 0.00 0.00 64 1008.2
20260504043308 44 0 0.0 0.0 0.00 0.00 0.00 64 1008.1
20260504043207 44 0 0.0 0.0 0.00 0.00 0.00 64 1008.2
20260504042707 44 0 0.0 0.9 0.00 0.00 0.00 63 1008.2
20260504042207 44 0 0.0 0.9 0.00 0.00 0.00 64 1008.0
20260504041808 44 0 0.0 2.6 0.00 0.00 0.00 64 1007.9
20260504041707 44 236 1.7 2.6 0.00 0.00 0.00 65 1007.9
20260504041207 44 0 0.0 0.0 0.00 0.00 0.00 64 1007.9
20260504040706 44 0 0.0 0.0 0.00 0.00 0.00 63 1007.9
20260504040308 44 0 0.0 0.0 0.00 0.00 0.00 63 1007.9
20260504040207 44 0 0.0 0.0 0.00 0.00 0.00 63 1007.9
20260504035707 44 0 0.0 0.0 0.00 0.00 0.00 62 1007.9
20260504035206 45 0 0.0 0.0 0.00 0.00 0.00 61 1007.9
20260504034808 45 0 0.0 0.0 0.00 0.00 0.00 61 1007.9
20260504034706 45 0 0.0 0.0 0.00 0.00 0.00 61 1007.9
20260504034206 45 0 0.0 0.0 0.00 0.00 0.00 61 1007.8
20260504033706 45 0 0.0 0.0 0.00 0.00 0.00 60 1007.9
20260504033308 45 0 0.0 0.0 0.00 0.00 0.00 59 1008.0
20260504033206 45 0 0.0 0.0 0.00 0.00 0.00 59 1007.9
20260504032706 46 0 0.0 0.0 0.00 0.00 0.00 59 1007.9
20260504032206 46 0 0.0 0.0 0.00 0.00 0.00 59 1007.8
20260504031808 46 0 0.0 0.0 0.00 0.00 0.00 58 1007.8
20260504031706 46 0 0.0 0.0 0.00 0.00 0.00 58 1007.8
20260504031206 46 0 0.0 0.0 0.00 0.00 0.00 57 1007.7
20260504030706 47 0 0.0 0.0 0.00 0.00 0.00 57 1007.8
20260504030308 47 0 0.0 0.0 0.00 0.00 0.00 57 1007.8
20260504030206 47 0 0.0 0.0 0.00 0.00 0.00 57 1007.8
20260504025706 47 0 0.0 0.0 0.00 0.00 0.00 56 1007.8
20260504025206 47 0 0.0 0.9 0.00 0.00 0.00 55 1007.8
20260504024808 48 0 0.0 0.0 0.00 0.00 0.00 55 1007.8
20260504024706 48 0 0.0 0.0 0.00 0.00 0.00 55 1007.9
20260504024206 48 0 0.0 0.0 0.00 0.00 0.00 54 1007.9
20260504023706 48 0 0.0 0.0 0.00 0.00 0.00 54 1007.9
20260504023308 48 0 0.0 0.9 0.00 0.00 0.00 54 1008.0
20260504023206 48 0 0.0 0.9 0.00 0.00 0.00 54 1008.0
20260504022706 48 0 0.0 0.9 0.00 0.00 0.00 53 1007.9
20260504022206 49 0 0.0 0.9 0.00 0.00 0.00 53 1007.9
20260504021808 49 0 0.0 0.0 0.00 0.00 0.00 53 1007.9
20260504021706 49 0 0.0 0.0 0.00 0.00 0.00 53 1007.9
20260504021206 49 0 0.0 0.0 0.00 0.00 0.00 53 1007.9
20260504020706 49 0 0.0 0.0 0.00 0.00 0.00 52 1007.8
20260504020308 49 0 0.0 0.0 0.00 0.00 0.00 51 1007.7
20260504020206 49 0 0.0 0.0 0.00 0.00 0.00 51 1007.8
20260504015706 50 0 0.0 0.0 0.00 0.00 0.00 51 1007.8
20260504015206 50 0 0.0 0.0 0.00 0.00 0.00 51 1007.8
20260504014808 50 0 0.0 0.9 0.00 0.00 0.00 50 1007.7
20260504014706 50 0 0.0 0.9 0.00 0.00 0.00 51 1007.8
20260504014206 50 0 0.0 0.0 0.00 0.00 0.00 51 1007.8
20260504013706 51 0 0.0 0.0 0.00 0.00 0.00 49 1007.8
20260504013308 51 0 0.0 0.9 0.00 0.00 0.00 49 1007.7
20260504013206 51 0 0.0 0.9 0.00 0.00 0.00 49 1007.7
20260504012706 51 0 0.0 0.9 0.00 0.00 0.00 48 1007.7
20260504012206 51 0 0.0 0.9 0.00 0.00 0.00 48 1007.6
20260504011808 51 0 0.0 0.0 0.00 0.00 0.00 48 1007.5
20260504011706 51 0 0.0 0.0 0.00 0.00 0.00 48 1007.5
20260504011206 52 0 0.0 0.0 0.00 0.00 0.00 47 1007.4
20260504010706 52 0 0.0 0.0 0.00 0.00 0.00 47 1007.4
20260504010308 52 0 0.0 0.0 0.00 0.00 0.00 47 1007.4
20260504010206 52 0 0.0 0.0 0.00 0.00 0.00 46 1007.4
20260504005706 52 0 0.0 0.0 0.00 0.00 0.00 46 1007.3
20260504005206 52 0 0.0 0.0 0.00 0.00 0.00 46 1007.2
20260504004807 52 0 0.0 0.0 0.00 0.00 0.00 46 1007.2
20260504004706 52 0 0.0 0.0 0.00 0.00 0.00 46 1007.2
20260504004206 53 0 0.0 0.0 0.00 0.00 0.00 45 1007.2
20260504003706 53 0 0.0 0.0 0.00 0.00 0.00 45 1007.1
20260504003307 53 0 0.0 0.0 0.00 0.00 0.00 45 1007.0
20260504003206 53 0 0.0 0.0 0.00 0.00 0.00 45 1007.0
20260504002706 54 0 0.0 0.0 0.00 0.00 0.00 44 1006.9
20260504002206 54 0 0.0 0.0 0.00 0.00 0.00 44 1006.9
20260504001808 54 0 0.0 0.9 0.00 0.00 0.00 44 1006.9
20260504001706 54 0 0.0 0.9 0.00 0.00 0.00 44 1006.9
20260504001206 54 0 0.0 0.0 0.00 0.00 0.00 43 1006.9
20260504000706 55 0 0.0 0.0 0.00 0.00 0.00 43 1006.8
20260504000308 55 0 0.0 1.7 0.00 0.00 0.00 43 1006.8
20260504000206 55 0 0.0 1.7 0.00 0.00 0.00 43 1006.8
20260503235706 55 241 1.7 1.7 0.00 0.00 0.00 43 1006.6
20260503235206 55 0 0.0 0.0 0.00 0.00 0.00 42 1006.5
20260503234808 55 229 2.6 3.5 0.00 0.00 0.00 42 1006.4
20260503234706 55 0 0.0 0.0 0.00 0.00 0.00 42 1006.4
20260503234206 56 243 0.9 1.7 0.00 0.00 0.00 43 1006.4
20260503233706 56 0 0.0 0.0 0.00 0.00 0.00 41 1006.4
20260503233308 56 235 1.7 4.3 0.00 0.00 0.00 42 1006.4
20260503233206 56 209 0.9 4.3 0.00 0.00 0.00 42 1006.3
20260503232706 56 0 0.0 0.9 0.00 0.00 0.00 42 1006.3
20260503232206 56 0 0.0 0.0 0.00 0.00 0.00 42 1006.3
20260503231807 56 0 0.0 2.6 0.00 0.00 0.00 40 1006.2
20260503231706 56 0 0.0 0.9 0.00 0.00 0.00 41 1006.2
20260503231206 57 313 0.9 2.6 0.00 0.00 0.00 40 1006.3
20260503230706 57 195 1.7 9.6 0.00 0.00 0.00 40 1006.2
20260503230307 57 160 0.9 2.6 0.00 0.00 0.00 40 1006.4
20260503230206 57 0 0.0 2.6 0.00 0.00 0.00 40 1006.4
20260503225706 57 248 0.9 0.9 0.00 0.00 0.00 40 1006.2
20260503225206 57 232 2.6 4.3 0.00 0.00 0.00 38 1006.2
20260503224807 57 0 0.0 1.7 0.00 0.00 0.00 40 1006.2
20260503224706 57 0 0.0 1.7 0.00 0.00 0.00 40 1006.2
20260503224206 57 0 0.0 0.0 0.00 0.00 0.00 39 1006.2
20260503223706 57 0 0.0 0.9 0.00 0.00 0.00 39 1006.3
20260503223307 57 217 0.9 4.3 0.00 0.00 0.00 39 1006.2
20260503223206 57 0 0.0 4.3 0.00 0.00 0.00 39 1006.3
20260503222706 57 253 3.5 3.5 0.00 0.00 0.00 39 1006.4
20260503222206 57 107 0.9 3.5 0.00 0.00 0.00 39 1006.3
20260503221807 58 0 0.0 1.7 0.00 0.00 0.00 38 1006.4
20260503221706 57 0 0.0 1.7 0.00 0.00 0.00 38 1006.3
20260503221206 58 222 5.2 7.0 0.00 0.00 0.00 39 1006.4
20260503220706 58 0 0.0 2.6 0.00 0.00 0.00 38 1006.3
20260503220307 58 250 1.7 3.5 0.00 0.00 0.00 38 1006.4
20260503220206 58 0 0.0 3.5 0.00 0.00 0.00 38 1006.4
20260503215706 57 0 0.0 7.8 0.00 0.00 0.00 39 1006.4
20260503215206 57 240 7.0 7.0 0.00 0.00 0.00 39 1006.4
20260503214807 58 147 0.9 4.3 0.00 0.00 0.00 36 1006.4
20260503214706 58 0 0.0 4.3 0.00 0.00 0.00 37 1006.3
20260503214206 58 0 0.0 6.1 0.00 0.00 0.00 37 1006.2
20260503213706 58 257 1.7 3.5 0.00 0.00 0.00 37 1006.3
20260503213307 58 0 0.0 3.5 0.00 0.00 0.00 38 1006.4
20260503213206 58 147 1.7 3.5 0.00 0.00 0.00 37 1006.3
20260503212706 58 0 0.0 5.2 0.00 0.00 0.00 36 1006.2
20260503212206 58 0 0.0 3.5 0.00 0.00 0.00 37 1006.2
20260503211807 58 0 0.0 0.9 0.00 0.00 0.00 38 1006.2
20260503211706 58 274 0.9 0.9 0.00 0.00 0.00 36 1006.2
20260503211206 58 254 0.9 2.6 0.00 0.00 0.00 37 1006.1
20260503210706 58 0 0.0 2.6 0.00 0.00 0.00 36 1006.1
20260503210307 58 0 0.0 2.6 0.00 0.00 0.00 37 1006.2
20260503210206 58 0 0.0 2.6 0.00 0.00 0.00 36 1006.2
20260503205706 59 0 0.0 0.9 0.00 0.00 0.00 38 1006.0
20260503205206 58 0 0.0 2.6 0.00 0.00 0.00 36 1006.1
20260503204807 59 243 1.7 6.1 0.00 0.00 0.00 36 1006.0
20260503204706 59 0 0.0 5.2 0.00 0.00 0.00 37 1006.1
20260503204206 58 0 0.0 6.1 0.00 0.00 0.00 36 1006.2
20260503203706 58 0 0.0 5.2 0.00 0.00 0.00 38 1006.3
20260503203307 58 0 0.0 2.6 0.00 0.00 0.00 36 1006.3
20260503203206 58 89 2.6 2.6 0.00 0.00 0.00 36 1006.3
20260503202706 59 0 0.0 5.2 0.00 0.00 0.00 37 1006.4
20260503202206 59 265 3.5 6.1 0.00 0.00 0.00 37 1006.4
20260503201807 58 0 0.0 4.3 0.00 0.00 0.00 37 1006.2
20260503201706 58 262 1.7 4.3 0.00 0.00 0.00 37 1006.3
20260503201206 59 259 5.2 6.1 0.00 0.00 0.00 37 1006.4
20260503200706 59 291 1.7 1.7 0.00 0.00 0.00 39 1006.4
20260503200307 59 0 0.0 3.5 0.00 0.00 0.00 35 1006.4
20260503200206 59 0 0.0 3.5 0.00 0.00 0.00 37 1006.4
20260503195706 59 314 1.7 4.3 0.00 0.00 0.00 38 1006.4
20260503195206 59 0 0.0 7.0 0.00 0.00 0.00 38 1006.5
20260503194808 59 0 0.0 7.0 0.00 0.00 0.00 39 1006.3
20260503194706 59 111 6.1 6.1 0.00 0.00 0.00 36 1006.5
20260503194206 59 0 0.0 6.1 0.00 0.00 0.00 39 1006.5
20260503193706 58 0 0.0 6.1 0.00 0.00 0.00 37 1006.5
20260503193307 59 0 0.0 5.2 0.00 0.00 0.00 36 1006.5
20260503193206 58 0 0.0 5.2 0.00 0.00 0.00 39 1006.7
20260503192706 58 0 0.0 2.6 0.00 0.00 0.00 37 1006.8
20260503192206 59 304 0.9 3.5 0.00 0.00 0.00 37 1006.7
20260503191807 60 288 2.6 3.5 0.00 0.00 0.00 36 1007.0
20260503191706 60 0 0.0 3.5 0.00 0.00 0.00 38 1006.8
20260503191206 60 306 2.6 4.3 0.00 0.00 0.00 33 1006.9
20260503190706 60 0 0.0 2.6 0.00 0.00 0.00 35 1006.8
20260503190307 60 324 2.6 10.4 0.00 0.00 0.00 38 1006.8
20260503190206 59 19 0.9 10.4 0.00 0.00 0.00 39 1006.7
20260503185706 59 0 0.0 3.5 0.00 0.00 0.00 36 1006.8
20260503185206 59 269 0.9 7.0 0.00 0.00 0.00 37 1006.8
20260503184807 58 278 2.6 4.3 0.00 0.00 0.00 41 1006.8
20260503184706 59 117 0.9 4.3 0.00 0.00 0.00 39 1006.9
20260503184206 59 0 0.0 6.1 0.00 0.00 0.00 38 1006.9
20260503183706 59 289 2.6 4.3 0.00 0.00 0.00 41 1007.0
20260503183307 59 0 0.0 6.1 0.00 0.00 0.00 39 1007.0
20260503183206 59 278 0.9 6.1 0.00 0.00 0.00 38 1007.2
20260503182706 58 16 0.9 2.6 0.00 0.00 0.00 35 1007.1
20260503182206 59 0 0.0 2.6 0.00 0.00 0.00 41 1007.0
20260503181807 59 63 2.6 6.1 0.00 0.00 0.00 43 1007.0
20260503181706 59 84 0.9 6.1 0.00 0.00 0.00 41 1007.1
20260503181206 57 121 1.7 3.5 0.00 0.00 0.00 38 1007.2
20260503180706 57 132 6.1 6.1 0.00 0.00 0.00 39 1007.2
20260503180308 58 0 0.0 9.6 0.00 0.00 0.00 37 1007.2
20260503180207 58 342 1.7 9.6 0.00 0.00 0.00 38 1007.2
20260503175707 57 53 3.5 3.5 0.00 0.00 0.00 43 1007.2
20260503175207 56 238 0.9 1.7 0.00 0.00 0.00 41 1007.1
20260503174808 56 36 2.6 6.1 0.00 0.00 0.00 37 1007.0
20260503174707 56 164 1.7 6.1 0.00 0.00 0.00 39 1007.2
20260503174207 57 311 1.7 3.5 0.00 0.00 0.00 38 1007.3
20260503173707 56 0 0.0 2.6 0.00 0.00 0.00 38 1007.3
20260503173308 56 5 0.9 7.8 0.00 0.00 0.00 38 1007.4
20260503173207 57 12 7.8 7.8 0.00 0.00 0.00 38 1007.3
20260503172707 57 279 0.9 6.1 0.00 0.00 0.00 37 1007.4
20260503172207 56 0 0.0 7.0 0.00 0.00 0.00 47 1007.4
20260503171808 56 260 1.7 6.1 0.00 0.00 0.00 39 1007.4
20260503171707 56 194 2.6 6.1 0.00 0.00 0.00 40 1007.3
20260503171207 55 313 0.9 6.1 0.00 0.00 0.00 40 1007.6
20260503170707 55 0 0.0 2.6 0.00 0.00 0.00 40 1007.6
20260503170308 55 0 0.0 6.1 0.00 0.00 0.00 41 1007.5
20260503170207 55 83 2.6 6.1 0.00 0.00 0.00 43 1007.6
20260503160207 52 0 0.0 1.7 0.00 0.00 0.00 46 1008.0
20260503150706 52 0 0.0 5.2 0.00 0.00 0.00 49 1008.2
20260503150308 52 334 0.9 3.5 0.00 0.00 0.00 49 1008.2
20260503150206 52 70 0.9 3.5 0.00 0.00 0.00 51 1008.2
20260503140308 51 349 1.7 3.5 0.00 0.00 0.00 53 1008.1
20260503140206 51 315 1.7 3.5 0.00 0.00 0.00 53 1008.2